Powrót do katalogu

BREEZE-M DEB

LostHEO
NORAD 48530·DEBRIS·🇷🇺 Russia

Wystrzelony Feb 28, 2006 z Baikonur Cosmodrome

Loading…

Następne Przeloty (najbliższe 24 godziny)

TLE

NieaktualneSource: Space-Track

Epoka: Jun 19, 2021, 00:55 UTC

1 48530U 06006DM  21170.03872854  .00002994  00000-0  27670-2 0  9998
2 48530  51.6514 311.6059 5026449 196.1426 139.0783  5.40870847114110

Śledź BREEZE-M DEB w czasie rzeczywistym z AllMySat

Download on the App Store